This demonstration page uses our WeatherBlox Daily Observations layout. Learn more.

Left ArrowRight Arrow

Hourly Observations for November 12, 2022

Temp ( °F °C ) Dew Point ( °F °C ) Humidity (%) Winds ( mph kmh ) Pressure ( in mb ) Visibility ( mi km ) Precip ( " mm )
12:53 am 00:53 Clear 34 1.1 17 -8.3 49 49 NE 6 9 30.23 1024 10 16 0.00 0.00
1:53 am 01:53 Clear 30 -1.1 17 -8.3 58 58 N 3 6 30.24 1024 10 16 0.00 0.00
2:53 am 02:53 Clear 30 -1.1 17 -8.3 58 58 N 7 11 30.22 1024 10 16 0.00 0.00
3:53 am 03:53 Clear 28 -2.2 16 -8.9 60 60 WNW 6 9 30.23 1024 10 16 0.00 0.00
4:53 am 04:53 Clear 28 -2.2 16 -8.9 60 60 WNW 7 11 30.24 1024 10 16 0.00 0.00
5:53 am 05:53 Clear 26 -3.3 16 -8.9 65 65 NW 8 13 30.26 1025 10 16 0.00 0.00
6:53 am 06:53 Clear 25 -3.9 15 -9.4 65 65 N 7 11 30.28 1025 10 16 0.00 0.00
7:53 am 07:53 Sunny 27 -2.8 15 -9.4 60 60 N 3 6 30.30 1026 10 16 0.00 0.00
8:53 am 08:53 Sunny 37 2.8 16 -8.9 42 42 Calm 30.31 1026 10 16 0.00 0.00
9:53 am 09:53 Sunny 40 4.4 14 -10 34 34 ESE 9 15 30.32 1027 10 16 0.00 0.00
10:53 am 10:53 Sunny 43 6.1 14 -10 30 30 SE 8 13 30.32 1027 10 16 0.00 0.00
11:53 am 11:53 Sunny 45 7.2 14 -10 28 28 SE 5 7 30.29 1026 10 16 0.00 0.00
12:53 pm 12:53 Sunny 49 9.4 13 -10.6 23 23 ESE 8 13 30.25 1024 10 16 0.00 0.00
1:53 pm 13:53 Sunny 50 10 13 -10.6 22 22 undefined N/A 30.22 1023 10 16 0.00 0.00
2:53 pm 14:53 Sunny 52 11.1 13 -10.6 21 21 SE 10 17 30.19 1023 10 16 0.00 0.00
3:53 pm 15:53 Sunny 52 11.1 14 -10 22 22 ESE 14 22 30.18 1022 10 16 0.00 0.00
4:53 pm 16:53 Sunny 52 11.1 15 -9.4 23 23 SSE 8 13 30.17 1022 10 16 0.00 0.00
5:53 pm 17:53 Sunny 50 10 16 -8.9 25 25 SE 8 13 30.17 1022 10 16 0.00 0.00
6:53 pm 18:53 Clear 46 7.8 17 -8.3 31 31 ESE 7 11 30.18 1022 10 16 0.00 0.00
7:53 pm 19:53 Clear 43 6.1 18 -7.8 36 36 E 6 9 30.19 1023 10 16 0.00 0.00
8:53 pm 20:53 Clear 43 6.1 19 -7.2 38 38 E 8 13 30.19 1022 10 16 0.00 0.00
9:53 pm 21:53 Clear 43 6.1 20 -6.7 39 39 E 8 13 30.17 1022 10 16 0.00 0.00
10:53 pm 22:53 Clear 40 4.4 21 -6.1 46 46 ESE 8 13 30.17 1022 10 16 0.00 0.00
11:53 pm 23:53 Clear 39 3.9 22 -5.6 50 50 ESE 8 13 30.16 1022 10 16 0.00 0.00

Powered by AerisWeather